[[{"header":{"parameterUnit":"m.s-1","parameterCategory":1,"la1":30.2991,"la2":30.254,"lo1":-89.0895,"lo2":-89.0444,"dy":0.0017,"dx":0.0017,"nx":28,"ny":28,"refTime":"2024-09-04T09:00:00:Z","depth":0,"parameterNumber":2,"parameterNumberName":"U-component_of_WINDS"},"data":[0,0,0,0,0,0,0,0,0,0,0,0,0,0,0,0,0,0,0,0,0,0,0,0,0,0,0,0,0,0,0,0,0,0,0,0,0,0,0,0,0,0,0,0,0,0,0,0,0,0,0,0,0,0,0,0,0,0,-6.8844,-6.8845,0,-6.8955,-6.8956,-6.8957,-6.8851,-6.8847,-6.8843,-6.8839,-6.8957,-6.8964,-6.8971,0,0,0,0,0,0,0,0,0,0,0,0,0,-6.8543,-6.8549,-6.8844,-6.8845,-6.8846,-6.8955,-6.8956,-6.8958,-6.8852,-6.8847,-6.8842,-6.8837,-6.8955,-6.8963,-6.8972,0,0,0,0,0,0,0,0,0,0,0,0,0,-6.8666,-6.8551,-6.8843,-6.8807,-6.8804,-6.8954,-6.8956,-6.8958,-6.8853,-6.8847,-6.884,-6.8834,-6.8952,-6.8962,-6.8973,-6.9166,0,0,-6.9006,-6.901,0,0,0,0,0,0,0,0,-6.8659,-6.8677,-6.8811,-6.8809,-6.8807,-6.8882,-6.8893,-6.9028,-6.8855,-6.8835,-6.8839,-6.8831,-6.8938,-6.8949,-6.8984,-6.9172,-6.9177,-6.9007,-6.9013,-6.9018,-6.9021,0,0,0,0,0,0,0,-6.8651,-6.8672,-6.8888,-6.8813,-6.8811,-6.8785,-6.8796,-6.8919,-6.8921,-6.8836,-6.8828,-6.8843,-6.8936,-6.8974,-6.8986,-6.9179,-6.9006,-6.9016,-6.9022,-6.9026,-6.9527,-6.9534,0,0,0,0,0,0,-6.8646,-6.8665,-6.8884,-6.8891,-6.8716,-6.8796,-6.8808,-6.8865,-6.8919,-6.8921,-6.8848,-6.8838,-6.8959,-6.8974,-6.899,-6.9216,-6.9017,-6.9027,-6.9034,-6.952,-6.9529,-6.9536,0,0,0,0,0,0,-6.8639,-6.8666,-6.888,-6.8776,-6.8801,-6.8808,-6.8873,-6.887,-6.8908,-6.8928,-6.8929,-6.8887,-6.8955,-6.8975,-6.9122,-6.9219,-6.9032,-6.9042,-6.9512,-6.9523,-6.9532,-6.9672,0,0,0,0,0,0,-6.8631,-6.8664,-6.8737,-6.8779,-6.8807,-6.9009,-6.8879,-6.8877,-6.8927,-6.8914,-6.8965,-6.8967,-6.8951,-6.9107,-6.9133,-6.923,-6.905,-6.9503,-6.9517,-6.9529,-6.9659,-6.9686,-6.9709,0,0,0,0,0,-6.8621,-6.8774,-6.8741,-6.8768,-6.8898,-6.9015,-6.9031,-6.9009,-6.8935,-6.9008,-6.9021,-6.8965,-6.9205,-6.9123,-6.9151,-6.9253,-6.9497,-6.9513,-6.9528,-6.9647,-6.968,-6.9708,0,0,0,0,0,0,-6.8745,-6.8779,-6.8743,-6.8914,-6.8962,-6.8997,-6.9088,-6.9045,-6.9117,-6.9102,-6.9073,-6.9085,-6.924,-6.9262,-6.917,-6.9442,-6.9339,-6.9361,-6.942,-6.9452,-6.9476,-6.9465,-6.9059,0,0,0,0,0,-6.8793,-6.8883,-6.8908,-6.9057,-6.9083,-6.9082,-6.9132,-6.911,-6.916,-6.918,-6.9203,-6.9255,-6.9341,-6.9399,-6.948,-6.9663,-6.9671,-6.9748,-6.9773,-6.9793,-6.9811,-6.9906,-6.9939,-6.9587,-6.9587,-6.9587,0,0,-6.8891,-6.8921,-6.898,-6.9082,-6.9117,-6.9212,-6.91,-6.9206,-6.9275,-6.9197,-6.9334,-6.9355,-6.941,-6.9575,-6.9649,-6.9598,-6.9911,-6.9813,-6.9829,-6.9836,-6.9925,-6.9958,-6.9988,-6.9598,-6.9596,-6.9594,0,0,-6.9117,-6.9151,-6.9275,-6.9312,-6.9366,-6.9364,-6.9395,-6.9436,-6.9445,-6.9583,-6.9525,-6.961,-6.976,-6.98,-6.9841,-7.0083,-7.0033,-7.0111,-7.024,-7.0333,-7.0361,-7.0385,-7.0467,-7.0497,-7.013,-7.013,-7.0131,0,-6.9233,-6.9371,-6.9345,-6.9454,-6.95,-6.9432,-6.9558,-6.9596,-6.9675,-6.9708,-6.9651,-6.9836,-6.9869,-7.004,-7.0099,-7.0136,-7.0168,-7.0102,-7.0359,-7.0383,-7.0405,-7.0483,-7.0514,-7.0139,-7.0138,-7.0137,-7.0136,0,-6.9509,-6.9607,-6.9701,-6.9775,-6.9833,-6.995,-6.9941,-7.0003,-6.9978,-6.9982,-7.0123,-7.0161,-7.0246,-7.0287,-7.0265,-7.0455,-7.0421,-7.0363,-7.0258,-7.0448,-7.052,-7.055,-7.0151,-7.0148,-7.0146,-7.0143,0,0,-6.9813,-6.9871,-6.9906,-6.9937,-6.9991,-7.0067,-7.0182,-7.0263,-7.0314,-7.0373,-7.0465,-7.0595,-7.0539,-7.0586,-7.0568,-7.065,-7.0834,-7.058,-7.0581,-7.0621,-7.1042,-7.1081,-7.1116,-7.0804,-7.0809,-7.0814,-7.1035,0,-7.0037,-7.0232,-7.0212,-7.0398,-7.0486,-7.0424,-7.0523,-7.0568,-7.0576,-7.0653,-7.0663,-7.0752,-7.0676,-7.0702,-7.0782,-7.0794,-7.0917,-7.0779,-7.0888,-7.0892,-7.0869,-7.1154,-7.1197,-7.1404,-7.1064,-7.1068,-7.1072,0,-7.0323,-7.0386,-7.0581,-7.0619,-7.0655,-7.0744,-7.0816,-7.0892,-7.0941,-7.0941,-7.0992,-7.096,-7.1075,-7.0972,-7.1129,-7.1036,-7.108,-7.1094,-7.1101,-7.1105,-7.0989,-7.1161,-7.147,-7.1498,-7.1117,-7.1114,-7.111,0,-7.0518,-7.0654,-7.0786,-7.0816,-7.0866,-7.0929,-7.0953,-7.0996,-7.1046,-7.1111,-7.1142,-7.1221,-7.1263,-7.1325,-7.1314,-7.1241,-7.1473,-7.137,-7.1474,-7.1474,-7.152,-7.1516,-7.1834,-7.156,-7.1559,-7.1558,-7.1558,0,-7.0767,-7.0887,-7.0874,-7.0955,-7.1087,-7.1064,-7.1196,-7.1213,-7.1252,-7.1335,-7.1289,-7.1369,-7.1352,-7.1432,-7.1425,-7.1553,-7.1575,-7.1577,-7.1572,-7.1577,-7.1576,-7.1601,-7.1585,-7.1567,-7.1565,-7.1563,-7.1562,0,-7.1005,-7.1002,-7.1141,-7.1177,-7.1188,-7.1284,-7.1314,-7.139,-7.1395,-7.1501,-7.1525,-7.1533,-7.1624,-7.1621,-7.1725,-7.1721,-7.1877,-7.1859,-7.1858,-7.1853,-7.1954,-7.1942,-7.2294,-7.2337,-7.204,-7.2043,-7.2046,0,-7.1161,-7.1251,-7.1295,-7.1346,-7.1373,-7.1458,-7.1507,-7.1489,-7.1543,-7.1606,-7.1674,-7.1761,-7.1827,-7.1976,-7.1992,-7.2071,-7.2051,-7.2169,-7.2062,-7.2063,-7.2046,-7.2038,-7.2045,-7.2188,-7.2191,-7.2194,-7.2196,0,-7.1435,-7.1429,-7.1501,-7.1573,-7.1633,-7.169,-7.1742,-7.1787,-7.1775,-7.1838,-7.1928,-7.1981,-7.2086,-7.2171,-7.2246,-7.2272,-7.2232,-7.2231,-7.2258,-7.226,-7.2254,-7.2253,-7.1909,-7.2221,-7.2219,-7.2217,-7.2216,-7.2215,-7.1633,-7.1709,-7.175,-7.1832,-7.1869,-7.1918,-7.199,-7.2003,-7.2078,-7.2159,-7.2146,-7.2247,-7.2294,-7.2391,-7.2424,-7.2503,-7.2461,-7.2501,-7.2511,-7.2519,-7.2528,-7.2247,-7.2517,-7.2517,-7.2516,-7.2516,-7.2515,0,-7.19,-7.1924,-7.2,-7.2071,-7.2136,-7.2093,-7.2148,-7.2204,-7.2292,-7.2339,-7.2405,-7.2509,-7.2591,-7.2614,-7.2693,-7.2752,-7.2735,-7.2773,-7.2765,-7.2771,-7.2564,-7.2529,-7.2785,-7.2785,-7.2785,-7.2785,-7.2785,-7.2784,-7.2046,-7.217,-7.2169,-7.2311,-7.2334,-7.243,-7.2465,-7.2509,-7.2545,-7.2662,-7.2729,-7.2743,-7.278,-7.2861,-7.2935,-7.2939,-7.2968,-7.3012,-7.3009,-7.2814,-7.2786,-7.276,-7.2727,-7.3021,-7.3021,-7.3209,-7.3211,-7.3212]},{"header":{"parameterUnit":"m.s-1","parameterCategory":1,"la1":30.2991,"la2":30.254,"lo1":-89.0895,"lo2":-89.0444,"dy":0.0017,"dx":0.0017,"nx":28,"ny":28,"refTime":"2024-09-04T09:00:00:Z","depth":0,"parameterNumber":3,"parameterNumberName":"V-component_of_WINDS"},"data":[0,0,0,0,0,0,0,0,0,0,0,0,0,0,0,0,0,0,0,0,0,0,0,0,0,0,0,0,0,0,0,0,0,0,0,0,0,0,0,0,0,0,0,0,0,0,0,0,0,0,0,0,0,0,0,0,0,0,-0.0649,-0.065,0,-0.0663,-0.0663,-0.0663,-0.0655,-0.0655,-0.0654,-0.0654,-0.0671,-0.0672,-0.0672,0,0,0,0,0,0,0,0,0,0,0,0,0,-0.062,-0.062,-0.0649,-0.065,-0.065,-0.0663,-0.0663,-0.0663,-0.0655,-0.0655,-0.0654,-0.0654,-0.0671,-0.0672,-0.0672,0,0,0,0,0,0,0,0,0,0,0,0,0,-0.0633,-0.062,-0.0649,-0.0647,-0.0647,-0.0662,-0.0663,-0.0663,-0.0655,-0.0655,-0.0654,-0.0654,-0.067,-0.0671,-0.0673,-0.0692,0,0,-0.0676,-0.0677,0,0,0,0,0,0,0,0,-0.0632,-0.0634,-0.0647,-0.0647,-0.0647,-0.0657,-0.0658,-0.0673,-0.0656,-0.0652,-0.0654,-0.0653,-0.0667,-0.0668,-0.0672,-0.0692,-0.0693,-0.0676,-0.0677,-0.0678,-0.0678,0,0,0,0,0,0,0,-0.0631,-0.0633,-0.0655,-0.0648,-0.0648,-0.0646,-0.0648,-0.0661,-0.0663,-0.0653,-0.0652,-0.0654,-0.0667,-0.0671,-0.0672,-0.0693,-0.0676,-0.0677,-0.0678,-0.0679,-0.0728,-0.0729,0,0,0,0,0,0,-0.063,-0.0633,-0.0654,-0.0655,-0.0638,-0.0647,-0.0649,-0.0654,-0.0663,-0.0663,-0.0654,-0.0653,-0.0669,-0.0671,-0.0673,-0.0695,-0.0678,-0.0679,-0.0679,-0.0728,-0.0729,-0.0729,0,0,0,0,0,0,-0.0629,-0.0632,-0.0654,-0.0644,-0.0646,-0.0649,-0.0655,-0.0655,-0.0659,-0.0664,-0.0664,-0.0658,-0.0669,-0.0671,-0.0686,-0.0695,-0.0679,-0.068,-0.0727,-0.0728,-0.0729,-0.0739,0,0,0,0,0,0,-0.0629,-0.0632,-0.0639,-0.0644,-0.0647,-0.0666,-0.0655,-0.0656,-0.0661,-0.066,-0.0667,-0.0668,-0.0669,-0.0685,-0.0688,-0.0697,-0.0681,-0.0726,-0.0728,-0.0729,-0.0738,-0.074,-0.0742,0,0,0,0,0,-0.0628,-0.0642,-0.0639,-0.0642,-0.0655,-0.0667,-0.0669,-0.0668,-0.0661,-0.0668,-0.0671,-0.0668,-0.0694,-0.0686,-0.069,-0.0699,-0.0726,-0.0727,-0.0729,-0.0737,-0.0739,-0.0742,0,0,0,0,0,0,-0.0639,-0.0643,-0.0639,-0.0656,-0.0661,-0.0666,-0.0674,-0.0671,-0.0679,-0.0678,-0.0678,-0.0679,-0.0695,-0.0699,-0.069,-0.0717,-0.0709,-0.0711,-0.0714,-0.0717,-0.0719,-0.0717,-0.0682,0,0,0,0,0,-0.0643,-0.0652,-0.0655,-0.0669,-0.0671,-0.0672,-0.0677,-0.0676,-0.0682,-0.0685,-0.0688,-0.0695,-0.0704,-0.0711,-0.072,-0.0738,-0.074,-0.0746,-0.0748,-0.075,-0.0752,-0.0761,-0.0764,-0.0734,-0.0734,-0.0734,0,0,-0.0653,-0.0655,-0.0661,-0.0671,-0.0675,-0.0684,-0.0674,-0.0685,-0.0692,-0.0687,-0.07,-0.0703,-0.0711,-0.0727,-0.0735,-0.0731,-0.076,-0.0752,-0.0753,-0.0754,-0.0762,-0.0765,-0.0768,-0.0735,-0.0734,-0.0734,0,0,-0.0674,-0.0677,-0.0688,-0.0692,-0.0697,-0.0698,-0.07,-0.0705,-0.0707,-0.072,-0.0716,-0.0725,-0.0742,-0.0747,-0.0751,-0.0773,-0.077,-0.0776,-0.0787,-0.0796,-0.0798,-0.08,-0.0807,-0.081,-0.0778,-0.0778,-0.0778,0,-0.0685,-0.0697,-0.0695,-0.0705,-0.0709,-0.0704,-0.0715,-0.0719,-0.0728,-0.0731,-0.0727,-0.0746,-0.0751,-0.0768,-0.0773,-0.0777,-0.078,-0.0775,-0.0798,-0.08,-0.0802,-0.0808,-0.0811,-0.0778,-0.0778,-0.0778,-0.0778,0,-0.071,-0.0719,-0.0728,-0.0734,-0.074,-0.0751,-0.075,-0.0756,-0.0755,-0.0756,-0.0769,-0.0774,-0.0784,-0.0788,-0.0787,-0.0805,-0.0802,-0.0797,-0.0789,-0.0805,-0.0811,-0.0814,-0.0779,-0.0779,-0.0779,-0.0779,0,0,-0.0739,-0.0744,-0.0747,-0.0749,-0.0754,-0.0761,-0.0772,-0.078,-0.0785,-0.0791,-0.08,-0.0813,-0.0808,-0.0814,-0.0813,-0.0821,-0.0837,-0.0815,-0.0816,-0.0819,-0.0856,-0.0858,-0.0861,-0.0835,-0.0835,-0.0835,-0.0855,0,-0.076,-0.0777,-0.0775,-0.0792,-0.08,-0.0794,-0.0803,-0.0807,-0.0809,-0.0816,-0.0818,-0.0827,-0.082,-0.0823,-0.0831,-0.0833,-0.0844,-0.0832,-0.0843,-0.0843,-0.0841,-0.0865,-0.0868,-0.0886,-0.0857,-0.0858,-0.0858,0,-0.0787,-0.0792,-0.0809,-0.0812,-0.0815,-0.0823,-0.0829,-0.0837,-0.0841,-0.0842,-0.0847,-0.0844,-0.0855,-0.0847,-0.0862,-0.0853,-0.0858,-0.086,-0.086,-0.0861,-0.0851,-0.0866,-0.0892,-0.0894,-0.0862,-0.0862,-0.0861,0,-0.0805,-0.0817,-0.0828,-0.0831,-0.0834,-0.084,-0.0842,-0.0846,-0.0851,-0.0857,-0.0859,-0.0867,-0.0872,-0.0878,-0.0878,-0.0872,-0.0893,-0.0884,-0.0893,-0.0893,-0.0898,-0.0898,-0.0924,-0.0902,-0.0902,-0.0901,-0.0901,0,-0.0828,-0.0839,-0.0836,-0.0843,-0.0855,-0.0852,-0.0864,-0.0865,-0.0869,-0.0876,-0.0873,-0.088,-0.0879,-0.0887,-0.0887,-0.0899,-0.0901,-0.0902,-0.0902,-0.0902,-0.0902,-0.0905,-0.0903,-0.0902,-0.0902,-0.0902,-0.0902,0,-0.0851,-0.0849,-0.0861,-0.0863,-0.0864,-0.0872,-0.0874,-0.0881,-0.0882,-0.0891,-0.0893,-0.0894,-0.0902,-0.0903,-0.0913,-0.0913,-0.0928,-0.0927,-0.0926,-0.0925,-0.0934,-0.0933,-0.0963,-0.0967,-0.0942,-0.0942,-0.0943,0,-0.0865,-0.0873,-0.0875,-0.0879,-0.0881,-0.0888,-0.0892,-0.089,-0.0895,-0.09,-0.0906,-0.0914,-0.092,-0.0934,-0.0936,-0.0944,-0.0942,-0.0952,-0.0944,-0.0943,-0.0942,-0.0941,-0.0942,-0.0954,-0.0954,-0.0955,-0.0955,0,-0.0891,-0.0889,-0.0895,-0.09,-0.0905,-0.0909,-0.0913,-0.0917,-0.0915,-0.0921,-0.0928,-0.0933,-0.0943,-0.095,-0.0958,-0.096,-0.0957,-0.0958,-0.096,-0.096,-0.0959,-0.0959,-0.093,-0.0957,-0.0957,-0.0957,-0.0956,-0.0956,-0.0909,-0.0915,-0.0918,-0.0924,-0.0926,-0.093,-0.0936,-0.0936,-0.0942,-0.0949,-0.0948,-0.0956,-0.0961,-0.097,-0.0973,-0.098,-0.0977,-0.098,-0.0981,-0.0982,-0.0982,-0.0958,-0.0981,-0.0981,-0.0981,-0.0981,-0.0981,0,-0.0934,-0.0935,-0.094,-0.0945,-0.095,-0.0946,-0.095,-0.0954,-0.0961,-0.0965,-0.097,-0.0979,-0.0986,-0.0989,-0.0996,-0.1001,-0.1,-0.1003,-0.1002,-0.1003,-0.0985,-0.0982,-0.1004,-0.1004,-0.1004,-0.1004,-0.1004,-0.1004,-0.0947,-0.0957,-0.0956,-0.0967,-0.0968,-0.0975,-0.0978,-0.0981,-0.0984,-0.0993,-0.0999,-0.1,-0.1003,-0.101,-0.1016,-0.1017,-0.1019,-0.1023,-0.1023,-0.1006,-0.1004,-0.1002,-0.0999,-0.1024,-0.1024,-0.104,-0.104,-0.104]}]]